User: anonymous   Login
Location: Daybis Observatory
(33.4273°N, 88.8061°W)
Time: 17:14:30
(UTC-05:00)
Language:

Coronas F rocket - Orbit

View from above orbital plane
View from above orbital plane
View from above satellite
View from above satellite

Ground track
Ground track

The orbit data is extracted from the following two-line orbital elements,

1 26874U 01032B   17116.87792345 +.04235169 -12494-5 +10527-3 0  9998
2 26874 082.4256 291.4232 0009230 252.0726 108.9158 16.45439032885614
Epoch (UTC): 26 April 2017 21:04:12
Eccentricity: 0.0009230
inclination: 82.4256°
perigee height: 145 km
apogee height: 157 km
right ascension of ascending node: 291.4232°
argument of perigee: 252.0726°
revolutions per day: 16.45439032
mean anomaly at epoch: 108.9158°
orbit number at epoch: 88561

The dashed part of the orbit path shows where the satellite is in the earth's shadow,  

DLR